Le nostre stazioni meteo in Italia

Pubblicità
Il mio iltempo24.it
Marina Di Ginosa, Italia (16325): Temperatura & dewpoint: 13.08.2018 10:00:00 - 19.08.2018 10:00:00 (CEST)Marina Di Ginosa, Italia (16325): velocità del vento: 13.08.2018 10:00:00 - 19.08.2018 10:00:00 (CEST)Marina Di Ginosa, Italia (16325): direzione del vento: 13.08.2018 10:00:00 - 19.08.2018 10:00:00 (CEST)Marina Di Ginosa, Italia (16325): reduced air pressure: 13.08.2018 10:00:00 - 19.08.2018 10:00:00 (CEST)Marina Di Ginosa, Italia (16325): visibility: 13.08.2018 10:00:00 - 19.08.2018 10:00:00 (CEST)
Data & Tempo tt [°C] td [°C] ff [km/h] ff [kn] dd ppp [hPa] vv [km]
19.08.2018 10:00:00 - - - - - - -
19.08.2018 09:00:00 28,0 20,0 15 8 ONO - 10
19.08.2018 08:00:00 25,0 19,8 16 9 NO 1014,3 20
19.08.2018 07:00:00 23,0 20,0 13 7 ONO - 10
19.08.2018 06:00:00 23,0 20,0 11 6 O - 10
19.08.2018 05:00:00 - - - - - - -
19.08.2018 04:00:00 - - - - - - -
19.08.2018 03:00:00 - - - - - - -
19.08.2018 02:00:00 23,8 21,5 8 4 O 1014,3 20
19.08.2018 01:00:00 24,0 21,0 8 4 ONO - 10
19.08.2018 00:00:00 25,0 22,0 8 4 ONO - 10
18.08.2018 23:00:00 25,2 21,1 5 3 NO 1014,4 20
18.08.2018 22:00:00 26,0 21,0 8 4 NNE - 10
18.08.2018 21:00:00 27,0 21,0 9 5 NNE - 10
18.08.2018 20:00:00 28,0 19,8 11 6 N 1013,8 20
18.08.2018 19:00:00 29,0 23,0 5 3 SO - 10
18.08.2018 18:00:00 30,0 23,0 11 6 SSO - 10
18.08.2018 17:00:00 32,2 22,9 11 6 S 1013,1 20
18.08.2018 16:00:00 33,0 21,0 9 5 S - 10
18.08.2018 15:00:00 33,0 20,0 11 6 S - 10
18.08.2018 14:00:00 33,4 19,9 9 5 SSE 1014,1 20
18.08.2018 13:00:00 33,0 18,0 5 3 ESE - 10
18.08.2018 12:00:00 32,0 19,0 8 4 ESE - 10
18.08.2018 11:00:00 31,2 19,9 8 4 O 1014,7 20
18.08.2018 10:00:00 29,0 20,0 11 6 ONO - 10
18.08.2018 09:00:00 26,0 20,0 13 7 ONO - 10
18.08.2018 08:00:00 23,2 19,4 11 6 ONO 1014,2 20
18.08.2018 07:00:00 21,0 19,0 11 6 ONO - 10
18.08.2018 06:00:00 21,0 19,0 9 5 ONO - 10
18.08.2018 05:00:00 22,0 20,1 11 6 O 1013,8 18
18.08.2018 04:00:00 22,0 20,0 11 6 NO - 10
18.08.2018 03:00:00 22,0 20,0 8 4 NO - 10
18.08.2018 02:00:00 22,0 20,1 8 4 NNO 1013,9 18
18.08.2018 01:00:00 23,0 21,0 9 5 ONO - 10
18.08.2018 00:00:00 24,0 22,0 9 5 NNO - 10
17.08.2018 23:00:00 24,0 21,7 5 3 ONO 1013,9 18
17.08.2018 22:00:00 25,0 22,0 4 2 N - 10
17.08.2018 21:00:00 26,0 23,0 4 2 NO - 10
17.08.2018 20:00:00 26,2 22,5 5 3 SSO 1013,0 20
17.08.2018 19:00:00 27,0 22,0 5 3 S - 10
17.08.2018 18:00:00 28,0 21,0 8 4 E - 10
17.08.2018 17:00:00 29,0 21,0 13 7 E 1012,6 20
17.08.2018 16:00:00 30,0 17,0 15 8 NNE - 10
17.08.2018 15:00:00 32,0 22,0 13 7 SSE - 10
17.08.2018 14:00:00 33,0 21,2 13 7 S 1013,2 20
17.08.2018 13:00:00 32,0 19,0 5 3 OSO - 10
17.08.2018 12:00:00 30,0 19,0 8 4 ENE - 10
17.08.2018 11:00:00 30,0 19,1 9 5 NNO 1013,6 20
17.08.2018 10:00:00 28,0 21,0 11 6 O - 10
17.08.2018 09:00:00 25,0 20,0 11 6 ONO - 10
17.08.2018 08:00:00 22,4 19,4 11 6 ONO 1013,5 20
17.08.2018 07:00:00 20,0 19,0 11 6 ONO - 10
17.08.2018 06:00:00 20,0 18,0 11 6 ONO - 10
17.08.2018 05:00:00 20,6 18,7 13 7 O 1013,0 20
17.08.2018 04:00:00 21,0 19,0 13 7 O - 10
17.08.2018 03:00:00 21,0 19,0 11 6 NO - 10
17.08.2018 02:00:00 20,6 18,4 9 5 ONO 1012,9 20
17.08.2018 01:00:00 21,0 19,0 11 6 ONO - 10
17.08.2018 00:00:00 21,0 19,0 13 7 NO - 10
16.08.2018 23:00:00 21,0 19,3 11 6 NO 1013,3 20
16.08.2018 22:00:00 21,0 20,0 11 6 ONO - 10
16.08.2018 21:00:00 21,0 20,0 11 6 ONO - 10
16.08.2018 20:00:00 22,0 20,5 9 5 O 1012,3 20
16.08.2018 19:00:00 23,0 21,0 5 3 ONO - 10
16.08.2018 18:00:00 22,0 20,0 8 4 NNO - 10
16.08.2018 17:00:00 21,4 19,9 9 5 NNO 1012,4 20
16.08.2018 16:00:00 22,0 21,0 8 4 N - 10
16.08.2018 15:00:00 22,0 21,0 13 7 SE - 10
16.08.2018 14:00:00 22,8 19,2 16 9 NNO 1013,3 15
16.08.2018 13:00:00 29,0 22,0 9 5 E - 10
16.08.2018 12:00:00 30,0 21,0 11 6 N - 10
16.08.2018 11:00:00 30,0 21,1 11 6 ONO 1011,5 20
16.08.2018 10:00:00 28,0 21,0 8 4 ONO - 10
16.08.2018 09:00:00 25,0 20,0 11 6 SSE - 10
16.08.2018 08:00:00 23,2 19,0 13 7 ONO 1011,4 20
16.08.2018 07:00:00 21,0 18,0 13 7 ONO - 10
16.08.2018 06:00:00 20,0 18,0 15 8 ONO - 10
16.08.2018 05:00:00 20,2 17,8 11 6 ONO 1011,4 20
16.08.2018 04:00:00 21,0 19,0 13 7 NNO - 10
16.08.2018 03:00:00 21,0 19,0 11 6 NO - 10
16.08.2018 02:00:00 21,0 18,9 11 6 NO 1012,0 20
16.08.2018 01:00:00 21,0 20,0 13 7 NO - 10
16.08.2018 00:00:00 22,0 20,0 9 5 ONO - 10
15.08.2018 23:00:00 22,4 20,0 9 5 NO 1011,7 20
15.08.2018 22:00:00 23,0 20,0 13 7 ONO - 10
15.08.2018 21:00:00 24,0 20,0 13 7 NO - 10
15.08.2018 20:00:00 24,8 20,5 21 11 ONO 1011,3 20
15.08.2018 19:00:00 26,0 21,0 16 9 N - 10
15.08.2018 18:00:00 28,0 19,0 16 9 NE - 10
15.08.2018 17:00:00 28,8 18,3 15 8 NNE 1010,1 20
15.08.2018 16:00:00 30,0 19,0 21 11 N - 10
15.08.2018 15:00:00 31,0 19,0 13 7 S - 10
15.08.2018 14:00:00 29,6 19,6 18 10 SSO 1010,3 20
15.08.2018 13:00:00 31,0 21,0 18 10 SSO - 10
15.08.2018 12:00:00 31,0 21,0 11 6 S - 10
15.08.2018 11:00:00 30,2 20,7 13 7 SE 1010,7 20
15.08.2018 10:00:00 30,0 20,0 5 3 O - 10
15.08.2018 09:00:00 27,0 20,0 11 6 NO - 10
15.08.2018 08:00:00 23,8 19,1 13 7 O 1011,6 20
15.08.2018 07:00:00 22,0 19,0 11 6 ONO - 10
15.08.2018 06:00:00 21,0 19,0 11 6 NO - 10
15.08.2018 05:00:00 21,4 19,5 11 6 NO 1010,6 20
15.08.2018 04:00:00 22,0 19,0 9 5 ONO - 10
15.08.2018 03:00:00 23,0 19,0 9 5 NO - 10
15.08.2018 02:00:00 23,6 20,0 11 6 NO 1011,2 20
15.08.2018 01:00:00 24,0 20,0 11 6 NO - 10
15.08.2018 00:00:00 24,0 21,0 11 6 NO - 10
14.08.2018 23:00:00 25,2 20,9 8 4 ONO 1011,4 20
14.08.2018 22:00:00 26,0 21,0 15 8 NNO - 10
14.08.2018 21:00:00 27,0 20,0 22 12 NO - 10
14.08.2018 20:00:00 28,0 21,5 21 11 ONO 1010,6 20
14.08.2018 19:00:00 30,0 19,0 9 5 OSO - 10
14.08.2018 18:00:00 30,0 24,0 16 9 S - 10
14.08.2018 17:00:00 32,0 22,7 18 10 S 1009,6 20
14.08.2018 16:00:00 34,0 21,0 18 10 SSE - 10
14.08.2018 15:00:00 34,0 22,0 21 11 SE - 10
14.08.2018 14:00:00 34,2 20,6 15 8 SSE 1011,0 20
14.08.2018 13:00:00 34,0 21,0 16 9 SSE - 10
14.08.2018 12:00:00 33,0 20,0 11 6 S - 10
14.08.2018 11:00:00 32,2 20,5 5 3 SSO 1011,9 20
14.08.2018 10:00:00 32,0 16,0 9 5 S - 10
14.08.2018 09:00:00 27,0 17,0 5 3 SO - 10
14.08.2018 08:00:00 23,4 17,8 8 4 NO 1011,9 18
14.08.2018 07:00:00 23,0 19,0 11 6 ONO - 10
14.08.2018 06:00:00 24,0 21,0 8 4 NO - 10
14.08.2018 05:00:00 24,0 21,7 9 5 NO 1011,7 18
14.08.2018 04:00:00 25,0 23,0 8 4 ONO - 10
14.08.2018 03:00:00 25,0 24,0 9 5 ONO - 10
14.08.2018 02:00:00 26,0 24,4 8 4 NO 1011,6 18
14.08.2018 01:00:00 27,0 25,0 5 3 N - 10
14.08.2018 00:00:00 27,0 25,0 5 3 N - 10
13.08.2018 23:00:00 28,0 26,0 8 4 N 1011,6 18
13.08.2018 22:00:00 29,0 26,0 5 3 E - 10
13.08.2018 21:00:00 29,0 27,0 8 4 SE - 10
13.08.2018 20:00:00 29,4 26,2 9 5 SSE 1011,5 20
13.08.2018 19:00:00 30,0 27,0 9 5 SSE - 10
13.08.2018 18:00:00 31,0 27,0 15 8 SSE - 10
13.08.2018 17:00:00 32,0 25,6 18 10 SSE 1011,9 20
13.08.2018 16:00:00 33,0 24,0 16 9 SSE - 10
13.08.2018 15:00:00 33,0 24,0 16 9 SSE - 10
13.08.2018 14:00:00 33,4 24,6 16 9 SSE 1013,5 20
13.08.2018 13:00:00 33,0 24,0 15 8 SE - 10
13.08.2018 12:00:00 33,0 23,0 13 7 SE - 10
13.08.2018 11:00:00 32,0 22,7 9 5 ESE 1014,0 18
13.08.2018 10:00:00 32,0 20,0 4 2 SSO - 10

tt = Temperatura
td = dewpoint
ff = velocità del vento
dd = direzione del vento
ppp = reduced air pressure
vv = visibility

Stazioni seguenti

WeatherPro
AMSI
MeteoEarth